Station PRTA2 - Point Retreat, AK Image indicating link to RSS feed of recent meteorological observations for station PRTA2


Conditions at PRTA2 as of
(5:10 am AKDT)
1310 GMT on 07/22/2024:
     

Click on the graph icon in the table below to see a time series plot of the last five days of that observation.

5-day plot - Wind Direction Wind Direction (WDIR): S ( 190 deg true )
5-day plot - Wind Speed Wind Speed (WSPD): 2.9 kts
5-day plot - Wind Gust Wind Gust (GST): 4.1 kts
5-day plot - Atmospheric Pressure Atmospheric Pressure (PRES):30.09 in
5-day plot - Air Temperature Air Temperature (ATMP): 55.8 °F
5-day plot - Dew Point Dew Point (DEWP): 54.1 °F
5-day plot - Wind Speed at 10 Meters Wind Speed at 10 meters (WSPD10M): 3.9 kts
5-day plot - Wind Speed at 20 Meters Wind Speed at 20 meters (WSPD20M): 3.9 kts
5-day plot -  Wind Speed, Wind Gust and Atmospheric Pressure Combined plot of Wind Speed, Gust, and Air Pressure
Previous observations
TIME
(AKDT)
5-day plot - Wind Direction
WDIR
 
5-day plot - Wind Speed
WSPD
kts
5-day plot - Wind Gust
GST
kts
5-day plot - Wave Height
WVHT
ft
5-day plot - Dominant Wave Period
DPD
sec
5-day plot - Average Wave Period
APD
sec
5-day plot - Mean Wave Direction
MWD
 
5-day plot - Atmospheric Pressure
PRES
in
5-day plot - Pressure Tendency
PTDY
in
5-day plot - Air Temperature
ATMP
°F
5-day plot - Water Temperature
WTMP
°F
5-day plot - Dew Point
DEWP
°F
5-day plot - Salinity
SAL
psu
5-day plot - Visibility
VIS
nmi
5-day plot - Tide (above MLLW)
TIDE
ft
2024-07-22 04:10 amWSW 1.0 4.1----30.09- 56.3- 54.1---
2024-07-22 03:10 amSSE 1.0 8.0----30.10- 59.2- 54.3---
2024-07-22 02:10 amSSE 5.1 8.0----30.10- 58.3- 55.4---
2024-07-22 01:10 am S 2.9 8.9----30.10- 59.7- 55.4---
2024-07-22 12:10 amSSE 2.9 7.0----30.09- 60.4- 55.9---
2024-07-21 11:10 pmSSE 4.1 8.0----30.09- 61.3- 56.1---
2024-07-21 10:10 pmSSE 5.1 8.9----30.07- 62.6- 56.8---
2024-07-21 09:10 pmSSE 2.9 8.0----30.06- 63.0- 57.2---
2024-07-21 08:10 pmSSE 5.1 14.0----30.05- 65.1- 57.9---
2024-07-21 07:10 pm SW 5.1 12.0----30.03- 67.3- 58.6---
2024-07-21 06:10 pm SW 8.0 17.1----30.02- 63.3- 58.1---
2024-07-21 05:10 pm SW 9.9 18.1----30.01- 64.8- 59.5---
2024-07-21 04:10 pm SW 8.0 15.9----30.01- 68.5- 58.8---
2024-07-21 03:10 pm S 1.9 8.9----30.01- 67.1- 60.3---
2024-07-21 02:10 pm- 0.0 5.1----30.02- 69.3- 61.0---
2024-07-21 01:10 pmSSE 1.0 2.9----30.03- 67.5- 61.2---
2024-07-21 12:10 pm SW 2.9 6.0----30.05- 63.1- 61.5---
2024-07-21 11:10 amNNW 1.9 5.1----30.06- 60.3- 60.3---
2024-07-21 10:10 am- 0.0 1.9----30.07- 60.1- 60.1---
2024-07-21 09:10 amWSW 2.9 4.1----30.08- 57.0- 57.0---
2024-07-21 08:10 am- 0.0 1.9----30.09- 57.2- 57.2---
2024-07-21 07:10 am- 0.0 1.9----30.10- 56.5- 56.5---
2024-07-21 06:10 am SW 4.1 6.0----30.11- 56.3- 56.3---